Theta_e
347 346 344 341 340 335 331 327 322 323 324 324 324 325 331 336 333 331 332 332 332 332 332 336 342 342 342 341 340 338 335 336 338 342 342 343 343 343 341 338 333 329 323
349 349 345 340 339 338 334 332 325 323 324 324 324 324 324 324 326 329 332 333 332 331 332 331 332 334 336 336 335 337 338 338 339 343 343 343 342 343 343 340 338 332 328
350 349 347 341 336 338 337 334 332 323 323 324 325 325 324 324 325 328 330 331 331 330 330 330 329 329 329 331 332 334 338 340 339 341 344 343 341 344 343 342 340 337 330
351 350 348 342 335 333 337 337 335 330 324 324 324 325 325 325 325 325 326 328 329 330 331 332 331 330 329 330 331 333 336 340 342 342 343 342 345 345 345 343 341 340 335
342 351 347 341 335 332 332 337 337 336 331 326 326 326 326 326 325 325 326 328 329 332 333 333 332 330 329 329 330 332 334 337 341 341 344 343 345 345 344 344 344 341 339
351 349 342 339 335 330 329 335 337 337 337 334 329 330 330 329 328 326 326 325 325 326 328 329 328 327 326 327 329 330 332 333 335 338 344 346 347 347 347 346 344 343 340
346 346 344 338 335 328 327 330 336 337 337 337 337 333 333 334 334 333 331 328 326 325 325 325 325 324 324 325 326 326 327 329 331 333 338 344 345 348 348 348 347 345 341
341 341 340 337 331 326 326 329 332 334 336 337 337 337 337 335 335 336 335 333 330 328 326 325 325 325 325 324 323 323 325 326 327 327 331 336 338 348 346 347 349 347 344
350 343 338 334 331 329 327 327 330 332 335 335 336 336 336 336 336 336 336 336 335 332 330 327 325 325 325 325 325 323 322 321 321 321 325 330 336 344 346 346 349 349 347
339 337 336 334 336 335 333 330 329 330 330 330 331 333 333 331 331 334 334 334 334 332 331 330 328 325 325 325 326 326 324 323 321 320 321 324 330 335 333 343 348 350 349
344 342 343 345 344 345 347 340 336 335 335 334 343 344 344 342 337 330 328 326 325 325 325 326 328 329 326 325 325 326 327 325 323 322 321 320 321 324 328 342 344 345 349
328 329 330 333 333 334 344 347 349 346 340 342 345 344 340 336 341 339 337 334 330 326 324 323 325 326 327 324 324 324 325 326 326 325 323 322 321 322 322 328 338 342 347
323 322 322 323 323 323 325 334 342 344 347 347 343 343 338 338 338 340 341 342 342 340 333 328 331 335 336 338 340 340 338 331 326 326 325 323 326 329 329 325 340 338 344
322 322 322 321 321 321 322 323 323 326 334 338 338 342 342 342 342 341 341 342 343 339 342 341 338 339 340 341 342 343 342 341 335 326 332 327 327 331 331 330 335 334 336
322 322 321 321 320 320 319 319 319 319 321 323 327 342 341 342 342 342 342 342 343 342 335 340 342 343 343 343 344 344 344 343 338 333 337 336 328 333 334 333 334 338 337
322 322 321 321 320 319 319 318 317 317 316 318 323 327 332 335 336 338 340 339 340 339 335 333 334 337 341 343 344 344 344 344 342 340 339 338 329 333 335 334 335 334 340
321 321 321 320 320 319 319 319 319 317 314 314 317 325 329 330 329 331 333 334 337 339 339 341 340 330 339 341 340 342 342 343 342 343 341 339 339 334 337 338 338 335 334
322 322 321 320 320 320 319 319 320 319 317 312 314 317 321 327 330 331 331 332 333 334 336 340 340 337 342 342 342 342 343 340 339 339 341 342 340 339 339 340 340 338 335
323 322 320 320 320 320 319 319 320 319 320 318 315 313 315 318 321 325 329 331 331 332 333 334 339 342 342 341 343 341 342 343 341 331 343 341 342 341 340 340 340 339 338
324 321 320 320 320 320 320 320 320 320 320 319 318 317 315 311 312 319 320 326 329 331 332 332 333 339 342 341 341 340 340 341 340 339 341 341 340 341 342 341 341 342 341
322 320 320 320 320 320 320 320 320 320 320 320 319 318 318 315 310 310 311 318 322 326 328 330 332 334 338 340 339 339 340 338 339 338 335 340 340 340 342 342 342 341 340
320 320 320 320 320 320 320 320 320 320 320 320 318 318 318 317 314 310 309 310 311 315 320 325 329 331 333 337 338 336 335 335 335 331 333 331 332 330 333 332 338 340 340
320 320 319 320 321 321 320 320 320 320 320 319 318 317 316 315 313 311 309 310 309 310 312 315 321 327 330 332 334 336 336 335 334 334 334 334 333 333 334 336 336 337 339
321 319 319 320 321 320 320 320 320 319 319 318 318 317 316 315 313 310 309 310 310 311 311 313 315 320 328 330 331 333 335 335 334 335 333 334 334 335 337 339 339 335 332
319 319 319 320 321 321 321 320 319 319 318 318 317 314 311 310 310 310 310 310 310 312 313 313 313 314 323 329 330 332 333 335 334 334 334 334 333 333 332 332 332 333 333
319 320 320 321 321 321 320 319 318 317 315 312 311 311 311 310 310 310 310 311 312 313 313 313 313 313 314 324 328 330 332 333 334 333 334 333 334 334 334 334 335 334 333
Wind_Speed
19 14 11 10 9 9 9 9 10 11 11 11 11 12 12 11 10 12 12 11 10 10 10 9 8 7 6 5 4 5 5 4 2 3 4 8 10 11 14 15 15 15 13
16 13 10 9 9 9 8 8 9 10 10 10 10 10 11 12 13 13 12 10 9 8 8 8 8 7 6 5 5 4 4 3 1 1 1 1 5 7 10 13 13 14 13
12 11 10 9 8 8 8 8 8 10 11 10 9 9 9 10 12 13 12 10 9 8 8 7 7 6 6 5 5 4 4 5 5 4 2 2 2 6 7 10 11 12 12
10 13 8 7 7 8 10 9 8 8 9 9 8 8 8 8 10 10 10 10 9 9 8 8 7 7 6 6 6 6 5 5 6 6 5 4 5 4 5 6 8 9 10
3 8 6 5 5 7 11 12 11 9 8 8 8 7 6 6 7 8 9 9 9 9 9 9 9 8 8 8 8 8 8 7 8 8 9 8 5 4 6 5 7 8 8
11 8 4 3 3 4 7 10 10 9 8 6 6 6 6 6 6 7 7 8 8 8 9 10 10 10 10 10 11 11 11 11 11 11 12 10 10 9 10 9 8 9 8
9 8 9 6 4 4 5 6 8 8 7 6 6 6 7 7 8 8 8 9 9 9 10 11 11 11 11 12 12 13 13 13 14 14 14 15 14 13 13 11 11 10 10
9 5 3 2 3 3 4 5 6 7 8 7 7 8 9 11 11 11 12 12 12 12 12 13 13 13 13 13 14 14 14 15 16 16 16 17 17 16 15 15 14 14 13
5 4 4 4 4 3 3 3 4 5 7 7 7 8 10 13 15 16 16 16 16 16 16 16 16 15 15 15 16 16 16 16 17 18 18 18 18 18 18 16 16 16 16
4 5 5 5 3 3 4 3 3 3 4 5 6 8 12 15 16 18 19 20 19 19 19 19 19 18 18 18 18 18 18 19 20 19 19 20 19 21 21 20 18 18 19
9 9 6 4 3 2 6 6 5 5 7 7 7 12 15 16 17 19 20 20 21 22 22 23 22 21 21 21 21 21 20 21 21 21 21 21 21 22 22 23 20 20 22
12 10 6 4 3 3 2 5 8 10 9 10 12 14 13 15 17 19 21 23 23 24 24 25 24 24 24 24 24 24 24 22 22 22 22 22 22 22 23 24 23 21 23
11 7 7 7 6 4 2 4 7 10 12 14 16 15 14 15 17 19 20 21 22 23 26 25 23 22 21 21 20 20 23 26 26 24 23 23 22 21 24 25 24 23 23
8 8 9 10 11 11 8 7 8 11 15 17 18 19 19 17 18 17 22 24 23 23 24 24 23 22 21 22 22 23 23 22 25 26 23 24 24 21 20 21 24 26 24
11 9 12 14 16 20 17 14 12 11 13 16 20 20 20 22 22 23 23 24 26 26 27 28 28 26 26 24 24 24 26 25 22 22 22 22 25 20 18 18 21 24 25
14 11 12 15 18 22 19 16 18 19 16 14 16 19 21 22 23 25 25 25 25 26 26 32 33 32 32 30 29 27 25 26 25 23 23 20 23 23 22 24 25 24 24
13 13 12 15 20 21 23 21 25 26 23 17 16 17 19 20 21 24 26 26 25 27 29 29 31 29 28 29 29 30 29 29 25 25 27 25 21 23 24 25 25 25 29
7 5 10 14 18 20 22 22 24 27 30 24 19 18 21 22 23 23 23 24 25 27 30 31 29 30 30 31 31 31 30 31 31 31 26 28 29 27 27 27 28 27 27
4 5 9 15 18 20 23 25 26 29 29 30 26 23 22 22 23 25 25 24 25 28 28 27 31 32 33 33 34 32 35 36 35 30 26 28 29 31 32 31 31 30 30
3 5 6 11 16 18 18 19 23 28 27 29 30 28 29 28 25 25 26 28 28 27 26 26 27 29 33 37 38 35 38 34 32 29 28 28 32 30 31 32 32 33 32
5 6 7 13 13 14 14 17 21 23 26 27 29 30 34 34 30 29 28 29 31 32 31 26 25 28 33 33 33 36 37 37 35 34 33 33 31 33 34 35 34 33 32
6 6 9 13 14 13 15 18 20 21 24 25 27 32 36 39 40 38 35 33 32 33 34 33 29 28 32 32 29 33 34 34 34 33 34 32 32 29 30 33 34 36 35
7 7 12 12 12 13 15 18 19 22 25 28 30 33 35 39 41 42 41 40 37 34 33 32 31 29 29 31 30 23 13 16 25 27 21 16 15 17 18 18 19 22 26
7 11 11 12 11 13 17 19 21 25 28 31 34 38 41 42 45 45 43 42 41 37 35 33 30 29 28 26 27 30 30 30 27 27 31 27 24 19 16 16 19 24 23
10 11 12 11 11 14 15 19 24 28 32 36 40 45 50 52 51 49 46 45 41 37 35 34 35 33 29 27 22 23 26 29 32 31 33 31 26 28 28 26 25 24 24
12 11 10 10 11 13 17 23 28 35 41 45 48 51 54 56 56 54 50 45 41 37 34 34 34 36 34 32 28 23 23 24 27 29 32 34 32 32 27 24 22 21 19
Wind_Direction
174 164 163 159 154 153 147 146 153 158 155 151 149 153 157 157 155 154 151 148 149 152 153 160 164 157 151 149 140 122 119 126 109 68 87 55 43 43 45 47 44 43 45
160 158 162 158 161 165 158 147 149 155 152 149 149 153 154 157 157 160 160 158 160 161 165 173 174 172 175 176 169 175 188 203 181 7 152 70 39 42 37 40 40 36 34
166 171 164 166 163 176 174 164 154 157 155 152 151 151 154 158 162 168 173 176 177 175 174 183 190 190 191 197 199 207 211 219 228 243 219 230 342 28 27 27 29 30 28
160 168 175 174 171 184 190 184 172 163 161 158 157 156 159 164 170 176 185 191 193 195 200 209 208 203 206 218 222 224 229 231 235 237 234 251 274 320 353 2 8 16 19
119 189 172 183 188 198 200 195 188 180 174 171 171 170 173 181 185 188 192 199 203 206 211 215 217 219 218 221 229 229 236 239 237 240 239 247 269 276 292 313 337 350 360
153 173 159 188 206 222 219 209 202 199 194 190 196 197 201 210 213 215 219 219 223 226 227 228 229 229 226 226 229 232 233 238 239 237 241 245 247 259 269 281 295 317 333
134 164 178 181 212 210 205 211 211 215 219 220 225 233 236 239 246 249 247 248 247 247 247 246 244 243 240 236 235 237 239 242 245 242 240 248 255 260 273 274 272 287 304
141 161 176 191 214 188 197 204 207 212 224 229 237 249 256 259 259 259 260 261 260 257 255 253 256 257 256 254 250 246 245 247 251 252 250 250 255 260 276 277 269 273 286
114 145 168 190 205 208 208 211 217 215 220 230 244 257 262 263 264 266 265 264 264 265 265 263 259 258 259 259 258 255 252 252 255 257 258 257 257 256 268 277 265 263 271
128 137 168 240 212 252 225 214 255 268 264 256 266 275 278 273 269 267 269 271 272 270 269 268 267 267 267 266 264 261 259 256 256 256 257 260 256 258 265 269 265 262 262
119 134 119 145 55 343 233 210 230 255 265 266 276 294 290 288 280 274 275 275 274 273 271 268 264 263 262 264 264 266 267 265 265 263 261 258 259 260 261 256 266 266 259
90 89 97 71 28 13 2 215 231 235 248 254 264 285 285 288 287 283 279 277 276 274 270 268 268 265 262 262 265 268 266 266 267 267 266 263 259 263 263 259 259 268 259
55 50 46 38 26 5 305 261 256 257 251 257 264 266 265 279 281 284 283 287 286 285 277 269 265 266 269 271 271 273 273 268 264 263 265 264 258 263 262 256 255 267 261
51 46 31 16 3 358 348 325 298 276 265 261 264 262 260 265 268 272 279 283 285 287 283 280 272 269 268 269 273 278 279 281 271 263 264 260 256 264 263 260 263 269 266
51 46 40 28 18 7 348 339 328 312 291 279 268 269 270 266 266 267 269 276 284 284 280 281 276 272 274 267 273 275 276 276 278 264 266 270 256 262 261 266 279 276 264
43 43 30 22 15 8 6 358 355 347 324 294 280 272 270 269 270 269 270 273 274 276 274 275 274 274 275 271 271 269 276 275 271 271 271 277 258 256 262 270 277 276 265
35 25 19 10 8 8 10 9 10 10 356 328 296 286 280 279 277 276 274 274 273 265 266 271 273 268 273 272 273 275 277 273 271 271 267 266 265 259 266 271 276 277 264
29 28 14 1 2 2 1 4 0 4 8 0 339 309 293 288 286 284 284 283 281 274 270 269 265 268 269 274 274 277 279 279 271 273 274 267 261 260 266 274 278 278 272
17 2 360 353 354 354 350 354 352 354 356 358 358 353 341 320 301 294 291 288 284 282 284 281 270 266 266 268 270 272 279 281 281 271 272 272 269 264 265 271 279 279 275
341 334 325 344 347 340 337 339 340 344 345 347 348 347 344 340 326 313 297 288 286 285 282 283 281 271 262 261 267 273 275 278 275 272 270 273 272 271 268 270 275 276 275
309 306 316 340 328 317 316 321 327 332 334 337 338 337 335 335 333 324 313 301 289 285 284 283 283 280 268 262 265 268 270 274 270 267 267 272 272 271 270 270 271 275 277
275 295 324 328 314 303 302 312 319 323 327 327 326 327 328 329 329 326 318 312 301 293 284 280 278 278 274 268 266 265 273 276 271 269 268 275 272 276 276 274 273 270 276
278 303 316 315 303 294 300 312 315 318 318 318 319 320 321 321 320 319 316 311 304 292 288 282 278 275 276 270 266 261 252 259 281 280 273 276 270 276 283 287 279 276 274
289 308 312 304 283 288 308 309 309 311 313 315 315 314 312 311 310 309 308 307 303 293 282 282 277 270 268 271 266 262 252 255 263 280 277 276 270 268 272 278 280 290 294
294 295 308 302 280 300 298 304 310 311 312 310 308 306 306 308 308 310 309 306 299 289 282 275 271 266 259 264 261 263 261 256 250 255 272 276 280 279 282 284 284 284 290
303 314 332 317 292 296 310 315 313 312 311 310 311 311 311 310 309 307 306 302 294 284 278 274 272 268 260 255 259 258 254 254 259 251 255 265 274 278 279 281 284 285 288